User: anonymous
Location: Unspecified
(0.0000°N, 0.0000°E)
Time: 22:08:06
(UTC+02:00)
Language:

SJ-6B - Orbit

View from above orbital plane
View from above orbital plane
View from above satellite
View from above satellite

Ground track
Ground track

The orbit data is extracted from the following two-line orbital elements,

1 28415U 04035C   14241.01158630  .00002260  00000-0  16976-3 0  2724
2 28415 097.8023 246.1120 0055229 347.3284 012.6548 15.02464758544686
Epoch (UTC): 29 August 2014 00:16:41
Eccentricity: 0.0055229
inclination: 97.8023°
perigee height: 521 km
apogee height: 597 km
right ascension of ascending node: 246.1120°
argument of perigee: 347.3284°
revolutions per day: 15.02464758
mean anomaly at epoch: 12.6548°
orbit number at epoch: 54468

The dashed part of the orbit path shows where the satellite is in the earth's shadow,  

DLR